ISPRA Istituto Superiore per la Protezione e la Ricerca Ambientale
R.M.N. Rete Mareografica Nazionale
RAVENNA
LIVELLO IDROMETRICO (m)
DATA;ORA;VALORE
20100309;00:00;0,37
20100309;01:00;0,40
20100309;02:00;0,36
20100309;03:00;0,34
20100309;04:00;0,36
20100309;05:00;0,36
20100309;06:00;0,36
20100309;07:00;0,34
20100309;08:00;0,26
20100309;09:00;0,26
20100309;10:00;0,17
20100309;11:00;0,14
20100309;12:00;0,16
20100309;13:00;0,13
20100309;14:00;0,17
20100309;15:00;0,36
20100309;16:00;0,40
20100309;17:00;0,58
20100309;18:00;0,81
20100309;19:00;0,80
20100309;20:00;0,87
20100309;21:00;0,86
20100309;22:00;0,87
20100309;23:00;0,92
20100310;00:00;0,85
20100310;01:00;0,83
20100310;02:00;0,81
20100310;03:00;0,89
20100310;04:00;0,85
20100310;05:00;0,83
20100310;06:00;0,77
20100310;07:00;0,82
20100310;08:00;0,71
20100310;09:00;0,63
20100310;10:00;0,50
20100310;11:00;0,33
20100310;12:00;0,38
20100310;13:00;0,30
20100310;14:00;0,26
20100310;15:00;0,32
20100310;16:00;0,28
20100310;17:00;0,43
20100310;18:00;0,44
20100310;19:00;0,56
20100310;20:00;0,59
20100310;21:00;0,55
20100310;22:00;0,53
20100310;23:00;0,46
20100311;00:00;0,41
20100311;01:00;0,35
20100311;02:00;0,34
20100311;03:00;0,30
20100311;04:00;0,32
20100311;05:00;0,34
20100311;06:00;0,39
20100311;07:00;0,41
20100311;08:00;0,36
20100311;09:00;0,28
20100311;10:00;0,20
20100311;11:00;0,10
20100311;12:00;0,00
20100311;13:00;-0,03
20100311;14:00;-0,03
20100311;15:00;0,04
20100311;16:00;0,18
20100311;17:00;0,32
20100311;18:00;0,42
20100311;19:00;0,52
20100311;20:00;0,55
20100311;21:00;0,49
20100311;22:00;0,43
20100311;23:00;0,33
20100312;00:00;0,17
